Aérodrome :
LOGIN :

S'inscrire | Disclaimer

   EN    FR    IT 

 










Légende :    VFR   VFR Marginal   IFR   IFR Intensif   IFR Très Intensif
Visi : 
Plafond : 
>= 8 km
>= 3000ft
5 à 8 km
1000 à 3000 ft
1500m à 5 km
500 à 1000 ft
800 à 1500m
200 à 500 ft
< 800m
< 200 ft
Symboles :   Orages  Brouillard  Fortes neiges  Fortes précipitations  Vent > 20 kt
SIGMETs :   Divers  Orages  Givrage  Turbulence  Onde Orograph.  Cendres Volcan.






- Altitude de l'aérodrome : 13 ft
- Code IATA : GOA


LIMJ - Genoa Cristoforo Colombo

DERNIER METAR :
  • 130520Z 01003KT 320V050 CAVOK 09/M00 Q1016

METARs EXPIRÉS :
  • 130450Z 03005KT 360V060 CAVOK 08/M00 Q1016
  • 130420Z 02006KT CAVOK 09/M01 Q1016
  • 130350Z 01004KT 340V060 CAVOK 10/M02 Q1015
  • 130320Z 03004KT 360V070 CAVOK 09/M00 Q1015
  • 130250Z VRB02KT CAVOK 11/M01 Q1015
  • 130220Z 02004KT CAVOK 11/M01 Q1015

TAF TAF LIMJ
Valide du 13 à 00h jusqu'au 14 à 00h UTC


122300Z 1300/1324 03018KT CAVOK



MET'MAP, la Météo Aéronautique d'un coup d'oeil ! - Copyright ORBIFLY Décembre 2007 - Disclaimer

ORBIFLY MET'MAP TEAM :

Programmation & Développement : Alexandra Zaïnal
Sur une idée originale de : Baudouin d'Aumeries
Assistance à la programmation : Marc-Olivier Méhu
Soutien technique & logistique : Manuel Goepfert

Contact : metmap@orbifly.com




SOURCES & CREDITS :

   NOAA